Weather History for KHGR - March, 2012

Change the Weather History Date:

Wednesday, March 14, 2012

  Actual Average Record
Temperature  
Mean Temperature 66 °F 41 °F  
Max Temperature 78 °F 50 °F 78 °F (2012)
Min Temperature 54 °F 31 °F 24 °F (2005)
Degree Days  
Heating Degree Days 0 24  
Month to date heating degree days 370  
Since 1 July heating degree days 4273  
Cooling Degree Days 1 0  
Month to date cooling degree days 0  
Year to date cooling degree days 0  
Growing Degree Days 16 (Base 50)    
Moisture  
Dew Point 39 °F    
Average Humidity 39    
Maximum Humidity 60    
Minimum Humidity 22    
Precipitation  
Precipitation 0.00 in 0.11 in 1.05 in (1999)
Month to date precipitation 1.24  
Year to date precipitation 6.47  
Sea Level Pressure  
Sea Level Pressure 30.17 in    
Wind  
Wind Speed 6 mph (NW)    
Max Wind Speed 10 mph    
Max Gust Speed -    
Visibility 10 miles    
Events      
T = Trace of Precipitation, MM = Missing Value Source: NWS Daily Summary

Daily Weather History Graph

Daily Weather History Graph

Search for Another Location

Airport or City:

Trip Planner

Search our weather history database for the weather conditions in past years. The results will help you decide how hot, cold, wet, or windy it might be!

Date:

Astronomy

Mar. 14, 2012 Rise Set
Actual Time 7:23 AM EDT 7:17 PM EDT
Civil Twilight 6:56 AM EDT 7:44 PM EDT
Nautical Twilight 6:25 AM EDT 8:15 PM EDT
Astronomical Twilight 5:53 AM EDT 8:47 PM EDT
Moon 1:49 AM EDT (3/14) 11:33 AM EDT (3/14)
Length of Visible Light 12h 47m
Length of Day
11h 54m
Waning Gibbous, 54% of the Moon is Illuminated
Mar 14
Waning Gibbous
Mar 14
Last Quarter
Mar 22
New
Mar 30
First Quarter
Apr 6
Full

Hourly Weather History & Observations

Time (EDT) Temp. Dew Point Humidity Pressure Visibility Wind Dir Wind Speed Gust Speed Precip Events Conditions
12:53 AM 62.1 °F 46.0 °F 56% 30.08 in 10.0 mi West 8.1 mph - N/A   Clear
1:53 AM 63.0 °F 45.0 °F 52% 30.08 in 10.0 mi West 8.1 mph - N/A   Clear
2:53 AM 62.1 °F 44.1 °F 52% 30.08 in 10.0 mi West 10.4 mph - N/A   Clear
4:53 AM 57.9 °F 44.1 °F 60% 30.10 in 10.0 mi NNW 3.5 mph - N/A   Clear
5:53 AM 57.9 °F 41.0 °F 53% 30.13 in 10.0 mi NNW 5.8 mph - N/A   Clear
6:53 AM 57.9 °F 41.0 °F 53% 30.16 in 10.0 mi NNW 8.1 mph - N/A   Clear
7:53 AM 54.0 °F 39.9 °F 59% 30.19 in 10.0 mi Calm Calm - N/A   Clear
8:53 AM 57.0 °F 41.0 °F 55% 30.21 in 10.0 mi Calm Calm - N/A   Clear
9:53 AM 62.1 °F 37.9 °F 41% 30.23 in 10.0 mi NNW 5.8 mph - N/A   Clear
10:53 AM 64.9 °F 35.1 °F 33% 30.23 in 10.0 mi North 3.5 mph - N/A   Clear
11:53 AM 68.0 °F 30.0 °F 24% 30.22 in 10.0 mi NW 9.2 mph - N/A   Clear
12:53 PM 70.0 °F 28.9 °F 22% 30.21 in 10.0 mi Variable 5.8 mph - N/A   Clear
1:53 PM 73.9 °F 33.1 °F 22% 30.19 in 10.0 mi WNW 10.4 mph - N/A   Clear
2:53 PM 75.9 °F 34.0 °F 22% 30.16 in 10.0 mi NW 9.2 mph - N/A   Clear
3:53 PM 77.0 °F 37.0 °F 24% 30.15 in 10.0 mi West 8.1 mph - N/A   Clear
4:53 PM 78.1 °F 39.0 °F 25% 30.15 in 10.0 mi NNW 5.8 mph - N/A   Clear
5:53 PM 77.0 °F 39.9 °F 26% 30.14 in 10.0 mi NNW 5.8 mph - N/A   Clear
6:53 PM 73.9 °F 39.9 °F 29% 30.15 in 10.0 mi North 3.5 mph - N/A   Clear
7:53 PM 71.1 °F 39.0 °F 31% 30.17 in 10.0 mi Calm Calm - N/A   Clear
8:53 PM 68.0 °F 39.0 °F 35% 30.18 in 10.0 mi Calm Calm - N/A   Clear
9:53 PM 66.0 °F 39.9 °F 38% 30.19 in 10.0 mi ESE 6.9 mph - N/A   Clear
10:53 PM 64.9 °F 39.0 °F 39% 30.20 in 10.0 mi SSE 4.6 mph - N/A   Clear
11:53 PM 60.1 °F 41.0 °F 49% 30.20 in 10.0 mi East 8.1 mph - N/A   Clear